|
ATLAS 2AS CENTAUR R/B - Orbit
|
Shell Point;
23:57:49
| Home | Info | Passes |
|
View from above orbital plane
|
View from above satellite
|
Ground track
|
The orbit data is extracted from the following two-line orbital elements,
1 28096U 03054B 13141.05125929 0.00000050 00000-0 77980-4 0 03
2 28096 63.6640 218.4552 0227000 309.9334 50.0666 13.40699849 07
| Epoch (UTC): | 21 May 2013 01:13:48 |
| Eccentricity: | 0.0227000 |
| inclination: | 63.6640° |
| perigee height: | 937 km |
| apogee height: | 1276 km |
| right ascension of ascending node: | 218.4552° |
| argument of perigee: | 309.9334° |
| revolutions per day: | 13.40699849 |
| mean anomaly at epoch: | 50.0666° |
| orbit number at epoch: | 0 |
The dashed part of the orbit path shows where the satellite is in the earth's shadow,
|
|